Regional Weather Roundup
Issued by NWS

Home | Current Version | Previous Version | Graphics & Text | Print | Product List | Glossary On
Versions: 1 2 3 4 5 6 7 8 9 10 11 12 13 14 15 16 17 18 19 20 21 22 23 24 25 26 27 28 29 30 31 32 33 34 35 36 37 38 39 40 41 42 43 44 45 46 47 48 49 50
000
ASUS43 KLOT 270810
RWRIL

ILLINOIS REGIONAL WEATHER ROUNDUP
NATIONAL WEATHER SERVICE CHICAGO/ROMEOVILLE IL
200 AM CST SAT DEC 27 2014

NOTE: "FAIR" INDICATES FEW OR NO CLOUDS BELOW 12,000 FEET WITH NO
SIGNIFICANT WEATHER AND/OR OBSTRUCTIONS TO VISIBILITY.

* THESE STATIONS ARE NOT UNDER NWS QUALITY CONTROL. THEY ALSO MAY NOT
  REPORT WEATHER SUCH AS PRECIPITATION OR FOG.

ILZ001-002-007-009-015-016-024-270900-
NORTHWEST ILLINOIS

CITY           SKY/WX    TMP DP  RH WIND       PRES   REMARKS
MOLINE         CLOUDY    49  44  83 S8        29.93S
STERLING*      CLOUDY    46  43  87 S5        29.96R
SAVANNA*       LGT RAIN  44  41  91 CALM      29.94S
$$

ILZ003-004-008-010-011-017-018-270900-
NORTH CENTRAL ILLINOIS

CITY           SKY/WX    TMP DP  RH WIND       PRES   REMARKS
ROCKFORD       CLOUDY    45  42  89 S7        29.98S
FREEPORT*      CLOUDY    44  42  93 S9        29.96S
ROCHELLE*      CLOUDY    43  42  96 S7        29.98R
DE KALB*       CLOUDY    42  40  95 S10       29.98S
PERU*          CLOUDY    45  42  89 S13       29.99S
$$

ILZ005-006-012>014-019>023-270900-
NORTHEAST ILLINOIS

CITY           SKY/WX    TMP DP  RH WIND       PRES   REMARKS
CHICAGO-OHARE  CLOUDY    46  41  82 S12       29.99F
CHICAGO-MIDWAY CLOUDY    48  42  80 S12       30.01S
AURORA         CLOUDY    45  40  82 S10       29.99S
LANSING*       CLOUDY    46  42  87 S8        30.03S
JOLIET*        CLOUDY    46  42  84 S9        30.01S
WAUKEGAN       CLOUDY    46  41  82 S9        29.98F
DUPAGE AIRPORT CLOUDY    45  41  86 S8        29.99R
KANKAKEE*      CLOUDY    46  45  95 S14       30.04S
WHEELING       CLOUDY    46  42  86 S7        30.01S
MORRIS*        CLOUDY    46  43  92 S10       29.99F
ROMEOVILLE*    CLOUDY    45  42  88 S9G17     30.01S
NORTHERLY ISL    N/A     47  41  80 S13         N/A
$$

LMZ740>746-270900-
SOUTHERN LAKE MICHIGAN

STATION/POSITION SKY/WX   TEMP    WIND        PRES    VSBY  WAVE
                          AIR SEA DIR/SP/G                  HT/PER
                          (F)     (DEG/KT/KT) (MB)    (MI)  (FT/S)
WAUKEGAN HARBOR            41     170/  8/ 10   N/A
HARRISON CRIB              46     190/ 17/ 20   N/A
BURNHAM HARBOR             47     180/ 10/ 12   N/A
CALUMET HARBOR             47     170/  9/ 11 1015.4S
MICHIGAN CITY              47     160/ 12/ 16   N/A
$$

ILZ025>027-034>036-040-047-049-050-058-095>099-270900-
WEST-CENTRAL ILLINOIS

CITY           SKY/WX    TMP DP  RH WIND       PRES   REMARKS
QUINCY         CLOUDY    50  45  83 S14       29.97S
GALESBURG*     CLOUDY    49  46  88 S10G16    29.96S
MACOMB*        CLOUDY    49  47  91 S12       29.98F
JACKSONVILLE*  CLOUDY    49  47  90 S8        30.02R
PITTSFIELD*    CLOUDY    49  46  87 S9        30.02R
$$

ILZ028>032-037-038-041>044-048-051>054-059>061-270900-
CENTRAL ILLINOIS

CITY           SKY/WX    TMP DP  RH WIND       PRES   REMARKS
PONTIAC        CLOUDY    47  46  95 S15       30.03R
BLOOMINGTON    CLOUDY    46  45  97 S18       30.03R
DECATUR        CLOUDY    46  44  93 S14       30.06S
PEORIA         CLOUDY    49  44  83 S13       30.00R
LACON*         CLOUDY    48  43  84 S9G16     29.98S
LINCOLN*       CLOUDY    47  45  92 S12       30.03S
SPRINGFIELD    CLOUDY    47  44  90 S14       30.03F
TAYLORVILLE    CLOUDY    43  43 100 S12       30.05S
$$

ILZ033-039-045-046-055>057-062-063-270900-
EAST-CENTRAL ILLINOIS

CITY           SKY/WX    TMP DP  RH WIND       PRES   REMARKS
CHAMPAIGN      LGT RAIN  46  43  89 S15       30.06S FOG
DANVILLE*      RAIN      46  41  84 S12       30.06S
RANTOUL*       DRIZZLE   47  45  93 S10       30.06S
MATTOON        LGT RAIN  45  42  89 S15       30.09R
PARIS*         DRIZZLE   46  41  81 SW12      30.11R
$$

ILZ079-100>102-270900-
SOUTHWEST ILLINOIS

CITY           SKY/WX    TMP DP  RH WIND       PRES   REMARKS
ALTON          CLOUDY    46  45  95 S9        30.07R
BELLEVILLE     MOCLDY    46  46  99 S12       30.07S
CAHOKIA*       CLOUDY    48  46  93 S6        30.07R
SPARTA*        LGT RAIN  46  44  93 S10       30.11R
$$

ILZ064>066-069>071-074>076-080>082-084>086-088>090-092>094-270900-
SOUTH-CENTRAL ILLINOIS

CITY           SKY/WX    TMP DP  RH WIND       PRES   REMARKS
CARBONDALE     LGT RAIN  46  43  89 S7        30.12R FOG
CAIRO*         LGT RAIN  49  44  83 SE6       30.13F
EFFINGHAM*     DRIZZLE   45  41  86 SE6       30.12S
MARION         LGT RAIN  46  45  93 S9        30.13R
MT. VERNON     CLOUDY    46  41  81 S8        30.12R
CENTRALIA*     CLOUDY    46  43  90 S9        30.10S
SALEM*         CLOUDY    48  45  90 S5        30.11R
METROPOLIS*    RAIN      49  42  78 S6        30.14S
$$

ILZ067-068-072-073-078-083-087-091-270900-
SOUTHEAST ILLINOIS

CITY           SKY/WX    TMP DP  RH WIND       PRES   REMARKS
LAWRENCEVILLE  LGT RAIN  46  40  79 S5        30.15R
FLORA*         RAIN      45  43  92 S5        30.12S
FAIRFIELD*     LGT RAIN  46  44  92 S5        30.11F
HARRISBURG*    LGT RAIN  48  43  82 SW5       30.15R
ROBINSON*      LGT RAIN  45  40  83 S5        30.15R
CARMI*         CLOUDY    48  44  84 S9        30.13R
$$

ABBREVIATIONS USED IN REMARKS
   TC - TEMPERATURE IN CELSIUS
  WCI - WIND CHILL INDEX
   HX - HEAT INDEX
  VSB - VISIBILITY
$$




USA.gov is the U.S. government's official web portal to all federal, state and local government web resources and services.